Torna al catalogo

COSMOS 839 DEB

AttivoUNKNOWN
NORAD 10415·DEBRIS·🇷🇺 Russia

Lanciato Jul 8, 1976 da Plesetsk Cosmodrome

Loading…

Prossimi Passaggi (prossime 24 ore)

TLE

AggiornatoSource: Space-Track

Epoca: Sep 14, 2026, 12:25 UTC

1 10415U 76067J   26257.51795456 -.00000007  00000-0  21132-3 0  9991
2 10415  65.8360 276.8960 0675742 120.4942 322.3789 12.18833289233931

Traccia COSMOS 839 DEB in tempo reale con AllMySat

Download on the App Store